TimeAKDT,TemperatureF,Dew PointF,Humidity,Sea Level PressureIn,VisibilityMPH,Wind Direction,Wind SpeedMPH,Gust SpeedMPH,PrecipitationIn,Events,Conditions,WindDirDegrees,DateUTC
12:54 AM,39.0,36.0,89,29.74,10.0,North,10.4,-,N/A,,Clear,360,2012-10-11 08:54:00
1:54 AM,37.9,35.1,89,29.73,10.0,NNE,9.2,-,N/A,,Scattered Clouds,20,2012-10-11 09:54:00
2:54 AM,37.4,33.8,87,29.71,10.0,North,10.4,-,N/A,,Scattered Clouds,10,2012-10-11 10:54:00
3:54 AM,36.0,33.1,89,29.70,10.0,NNE,5.8,-,N/A,,Clear,30,2012-10-11 11:54:00
4:54 AM,35.1,33.1,92,29.69,10.0,North,9.2,-,N/A,,Clear,10,2012-10-11 12:54:00
5:54 AM,34.0,32.0,92,29.68,10.0,North,6.9,-,N/A,,Clear,360,2012-10-11 13:54:00
6:54 AM,33.1,30.9,92,29.66,10.0,North,5.8,-,N/A,,Clear,360,2012-10-11 14:54:00
7:54 AM,32.0,30.9,96,29.65,10.0,NNW,5.8,-,N/A,,Clear,340,2012-10-11 15:54:00
8:54 AM,32.0,28.9,88,29.64,10.0,North,8.1,-,N/A,,Scattered Clouds,360,2012-10-11 16:54:00
9:54 AM,34.0,30.9,89,29.63,10.0,North,3.5,-,N/A,,Partly Cloudy,10,2012-10-11 17:54:00
10:54 AM,39.0,33.1,79,29.62,10.0,North,5.8,-,N/A,,Scattered Clouds,350,2012-10-11 18:54:00
11:54 AM,46.0,37.0,71,29.61,10.0,North,4.6,-,N/A,,Scattered Clouds,350,2012-10-11 19:54:00
12:54 PM,52.0,37.9,59,29.59,10.0,East,11.5,18.4,N/A,,Scattered Clouds,90,2012-10-11 20:54:00
2:54 PM,54.0,37.9,55,29.54,10.0,Variable,4.6,-,N/A,,Scattered Clouds,0,2012-10-11 22:54:00
3:54 PM,55.0,36.0,49,29.51,10.0,ENE,9.2,-,N/A,,Scattered Clouds,70,2012-10-11 23:54:00
4:54 PM,55.0,36.0,49,29.48,10.0,East,8.1,-,N/A,,Scattered Clouds,90,2012-10-12 00:54:00
5:54 PM,52.0,36.0,54,29.47,10.0,East,6.9,-,N/A,,Partly Cloudy,100,2012-10-12 01:54:00
6:54 PM,46.9,37.0,68,29.46,10.0,East,6.9,-,N/A,,Partly Cloudy,90,2012-10-12 02:54:00
7:54 PM,45.0,35.1,68,29.44,10.0,East,8.1,-,N/A,,Partly Cloudy,90,2012-10-12 03:54:00
8:54 PM,42.1,35.1,76,29.44,10.0,ENE,6.9,-,N/A,,Partly Cloudy,60,2012-10-12 04:54:00
9:54 PM,37.9,32.0,79,29.43,10.0,North,8.1,-,N/A,,Partly Cloudy,360,2012-10-12 05:54:00
10:54 PM,34.0,30.9,89,29.42,10.0,North,8.1,-,N/A,,Clear,10,2012-10-12 06:54:00
11:54 PM,33.1,30.0,89,29.40,10.0,North,5.8,-,N/A,,Clear,10,2012-10-12 07:54:00